Regional Weather Roundup
Issued by NWS

Home | Current Version | Previous Version | Graphics & Text | Print | Product List | Glossary On
Versions: 1 2 3 4 5 6 7 8 9 10 11 12 13 14 15 16 17 18 19 20 21 22 23 24 25 26 27 28 29 30 31 32 33 34 35 36 37 38 39 40 41 42 43 44 45 46 47 48 49 50
000
ASUS43 KLOT 200409
RWRIL

ILLINOIS REGIONAL WEATHER ROUNDUP
NATIONAL WEATHER SERVICE CHICAGO/ROMEOVILLE IL
1100 PM CDT SAT AUG 19 2017

NOTE: "FAIR" INDICATES FEW OR NO CLOUDS BELOW 12,000 FEET WITH NO
SIGNIFICANT WEATHER AND/OR OBSTRUCTIONS TO VISIBILITY.

* THESE STATIONS ARE NOT UNDER NWS QUALITY CONTROL. THEY ALSO MAY NOT
  REPORT WEATHER SUCH AS PRECIPITATION OR FOG.

ILZ001-002-007-009-015-016-024-200500-
NORTHWEST ILLINOIS

CITY           SKY/WX    TMP DP  RH WIND       PRES   REMARKS
MOLINE         CLEAR     66  61  84 E5        29.95S
STERLING*      CLEAR     63  62  97 SE3       29.98R
SAVANNA*       CLEAR     65  63  92 CALM      29.97R
$$

ILZ003-004-008-010-011-017-018-200500-
NORTH CENTRAL ILLINOIS

CITY           SKY/WX    TMP DP  RH WIND       PRES   REMARKS
ROCKFORD       CLEAR     65  61  87 SE3       29.99S
FREEPORT*      CLEAR     61  60  95 S3        29.99S
ROCHELLE*      CLEAR     60  60  97 CALM      29.99S
DE KALB*       CLEAR     66  59  79 CALM      30.00S
PERU*          CLEAR     67  60  78 E6        29.98S
$$

ILZ005-006-012>014-019>023-200500-
NORTHEAST ILLINOIS

CITY           SKY/WX    TMP DP  RH WIND       PRES   REMARKS
CHICAGO-OHARE  CLEAR     71  54  54 SE3       29.98R
CHICAGO-MIDWAY CLEAR     74  54  49 S5        29.98R
AURORA         CLEAR     61  61 100 CALM      29.99R FOG
LANSING*       CLEAR     66  55  67 CALM      29.99S
JOLIET*        CLEAR     64  62  91 CALM      29.99S
WAUKEGAN       CLEAR     63  60  90 CALM      29.98R
DUPAGE AIRPORT CLEAR     66  62  87 CALM      29.99R
KANKAKEE*      CLEAR     64  63  94 CALM      30.00S
WHEELING       CLEAR     67  60  78 CALM      30.00R
MORRIS*        CLEAR     65  62  90 CALM      29.98S
ROMEOVILLE*    CLEAR     66  58  75 SE3       29.99S
NORTHERLY ISL    N/A     72  60  66 SE7         N/A
$$

LMZ740>746-200500-
SOUTHERN LAKE MICHIGAN

STATION/POSITION SKY/WX   TEMP    WIND        PRES    VSBY  WAVE
                          AIR SEA DIR/SP/G                  HT/PER
                          (F)     (DEG/KT/KT) (MB)    (MI)  (FT/S)
SOUTHERN BUOY              72 71  190/  6/  8 1015.3R         1
WILMETTE HARBOR            74 73  170/  6/  8   N/A           1/ 2
HARRISON CRIB              75     160/  8/  9   N/A
CALUMET HARBOR             73     180/  4/  5 1014.9R
BURNS HARBOR               73     110/  5/  6 1015.9R
MICHIGAN CITY              68     110/  4/  4   N/A
MICHIGAN CITY 6N           72 75  120/  6/  8   N/A           1
ST. JOSEPH                 71 78  140/  6/  8 1015.6          1
$$

ILZ025>027-034>036-040-047-049-050-058-095>099-200500-
WEST-CENTRAL ILLINOIS

CITY           SKY/WX    TMP DP  RH WIND       PRES   REMARKS
QUINCY         CLEAR     74  68  81 E7        29.95R
GALESBURG*     CLEAR     68  62  81 E5        29.97S
MACOMB*        CLEAR     65  64  95 E3        29.98S
JACKSONVILLE*  CLEAR     69  67  91 E6        29.96R
PITTSFIELD*    CLEAR     74  68  79 CALM      29.97R
$$

ILZ028>032-037-038-041>044-048-051>054-059>061-200500-
CENTRAL ILLINOIS

CITY           SKY/WX    TMP DP  RH WIND       PRES   REMARKS
PONTIAC        CLEAR     63  62  98 CALM      29.99S
BLOOMINGTON    CLEAR     66  63  90 E7        30.00R
DECATUR        CLEAR     69  65  86 E3        29.98S
PEORIA         CLEAR     70  64  81 E6        29.97R
LACON*         CLEAR     65  61  87 CALM      29.96F
LINCOLN*       CLEAR     66  65  95 CALM      29.97S
SPRINGFIELD    CLEAR     75  68  78 E5        29.97R
TAYLORVILLE    CLEAR     72  68  87 E6        29.98R
$$

ILZ033-039-045-046-055>057-062-063-200500-
EAST-CENTRAL ILLINOIS

CITY           SKY/WX    TMP DP  RH WIND       PRES   REMARKS
CHAMPAIGN      CLEAR     69  64  84 NE6       29.99R
RANTOUL*       CLEAR     72  66  82 CALM      29.99S
MATTOON        CLEAR     71  71 100 CALM      29.98R
PARIS*         CLEAR     68  65  92 E5        30.00R
$$

ILZ079-100>102-200500-
SOUTHWEST ILLINOIS

CITY           SKY/WX    TMP DP  RH WIND       PRES   REMARKS
ALTON          CLEAR     71  70  98 E5        29.96S
BELLEVILLE     CLEAR     75  70  84 CALM      29.97S
CAHOKIA*       PTCLDY    78  69  73 S5        29.95S HX  80
SPARTA*        CLEAR     76  71  83 SE3       29.98S
$$

ILZ064>066-069>071-074>076-080>082-084>086-088>090-092>094-200500-
SOUTH-CENTRAL ILLINOIS

CITY           SKY/WX    TMP DP  RH WIND       PRES   REMARKS
CARBONDALE     PTCLDY    74  73  97 SW6       29.98R
CAIRO*         CLEAR     78  72  81 CALM      29.97S HX  80
EFFINGHAM*     CLEAR     70  70 100 CALM      29.99S
MARION         CLEAR     77  75  94 S5        29.99S
MT. VERNON     FOG       70  70 100 CALM      29.98S VSB 1
CENTRALIA*     CLEAR     72  71  97 SE3       29.97S
SALEM*         MOCLDY    74  69  85 CALM      29.98R
METROPOLIS*    CLEAR     72  70  95 CALM      29.99S
$$

ILZ067-068-072-073-078-083-087-091-200500-
SOUTHEAST ILLINOIS

CITY           SKY/WX    TMP DP  RH WIND       PRES   REMARKS
LAWRENCEVILLE  CLEAR     74  69  85 CALM      29.98R
FLORA*         CLEAR     69  68  94 CALM      29.99R
FAIRFIELD*     CLEAR     70  70  99 CALM      29.97R
HARRISBURG*    CLEAR     69  68  98 CALM      29.98S
ROBINSON*      CLEAR     68  68 100 CALM      29.99R FOG
CARMI*         CLEAR     69  69 100 CALM      29.98R FOG
$$

ABBREVIATIONS USED IN REMARKS
   TC - TEMPERATURE IN CELSIUS
  WCI - WIND CHILL INDEX
   HX - HEAT INDEX
  VSB - VISIBILITY
$$





USA.gov is the U.S. government's official web portal to all federal, state and local government web resources and services.